Home > Weather > Albany > Past weeks

Flag for U.S.A. Weather for the Past 2 Weeks in Albany, New York, U.S.A.

Now
29 °F

Broken clouds.


Feels Like: 29 °F
Forecast: 23 / 34 °F
Wind: No wind

Location: Albany County Airport

Current Time: Feb 9, 2016 at 1:14:44 PM

Latest Report: Feb 9, 2016 at 12:51 PM


Visibility: 10 mi

Pressure: 29.59 "Hg

Humidity: 66%

Dew point: 19 °F

Location of AlbanyLocation

Historic Weather in Albany — Graph

°F

Albany Temperature Yesterday

Maximum temperature yesterday: 36 °F (at 12:51 PM)
Minimum temperature yesterday: 25 °F (at 5:51 PM)
Average temperature yesterday: 29 °F

High & Low Weather Summary for the Past Weeks

 TemperatureHumidityPressure
High57 °F (Feb 3, 6:51 PM)90% (Feb 3, 2:51 PM)30.37 "Hg (Feb 3, 2:51 PM)
Low18 °F (Jan 28, 1:51 AM)18% (Feb 8, 2:51 PM)29.46 "Hg (Jan 29, 12:51 PM)
Average36 °F59%29.98 "Hg
* Reported Jan 25 12:51 PM — Feb 9 12:01 PM, Albany, Weather by CustomWeather, © 2016

Note: Actual official high and low records may vary slightly from our data, if they occured in-between our weather recording intervals... More about our weather records

Advertising

Albany Weather History for the Previous 24 Hours

 ConditionsComfort  
Time TempWeatherWind HumidityBarometerVisibility
12:01 PM
Tue, Feb 9
26 °FMore clouds than sun.7 mph71%29.62 "Hg10 mi
10:51 AM25 °FLight snow. Cloudy.9 mph75%29.67 "Hg10 mi
9:51 AM24 °FLight snow. More clouds than sun.8 mph81%29.70 "Hg2 mi
8:51 AM25 °FLight snow. Mostly cloudy.7 mph81%29.70 "Hg2 mi
7:51 AM24 °FLight snow. Mostly cloudy.No wind84%29.68 "Hg7 mi
6:51 AM24 °FLight snow. Ice fog.No wind84%29.68 "Hg3 mi
5:51 AM24 °FLight snow. Ice fog.5 mph84%29.70 "Hg2 mi
4:58 AM25 °FLight snow. Ice fog.6 mph85%29.70 "Hg1 mi
4:04 AM25 °FLight snow. Ice fog.No wind85%29.70 "Hg1 mi
2:51 AM25 °FLight snow. Ice fog.No wind85%29.73 "Hg5 mi
1:51 AM25 °FLight snow. Ice fog.No wind85%29.75 "Hg5 mi
12:51 AM25 °FLight snow. Ice fog.No wind85%29.77 "Hg5 mi
12:00 AM25 °FLight snow. Ice fog.No wind85%29.77 "Hg3 mi
10:51 PM
Mon, Feb 8
25 °FLight snow. Ice fog.No wind85%29.80 "Hg1 mi
9:51 PM25 °FLight snow. Ice fog.No wind85%29.81 "Hg1 mi
8:51 PM25 °FLight snow. Ice fog.6 mph85%29.82 "Hg1 mi
7:51 PM25 °FLight snow. Mostly cloudy.No wind81%29.82 "Hg1 mi
6:51 PM25 °FLight snow. Mostly cloudy.3 mph81%29.82 "Hg1 mi
5:51 PM25 °FLight snow. Mostly cloudy.6 mph78%29.82 "Hg1 mi
4:51 PM28 °FLight snow. Mostly cloudy.5 mph51%29.81 "Hg8 mi
3:51 PM31 °FMostly cloudy.3 mph24%29.79 "Hg10 mi
2:51 PM33 °FMostly cloudy.14 mph18%29.79 "Hg10 mi
1:51 PM34 °FCloudy.7 mph25%29.80 "Hg10 mi
Weather by CustomWeather, © 2016

See weather overviewHow to use our weather pages